Location: Unspecified
(47.5370°N, 14.6980°E)
Time: 00:41:17
(UTC+00:00)

Daily predictions for brighter satellites

Satellite Brightness Start Highest point End
(mag) Time Altitude Azimuth Time Altitude Azimuth Time Altitude Azimuth
CZ-2D R/B 3.3 00:01:37 10° NNE 00:06:28 31° E 00:06:55 31° ESE
NOSS 0 Rocket 4.1 00:05:25 10° NNW 00:11:36 70° ENE 00:13:01 53° ESE
Cosmos 1606 Rocket 4.4 00:14:36 49° NE 00:14:36 49° NE 00:18:00 10° NNE
Cosmos 2228 4.1 00:14:52 42° NE 00:14:52 42° NE 00:18:03 10° NNE
USA 215 3.1 00:08:15 10° NE 00:14:50 89° NNW 00:15:59 64° WSW
Cosmos 1605 Rocket 4.0 00:13:18 10° N 00:19:41 81° E 00:20:38 66° SSE
Cosmos 1726 4.3 00:20:29 21° ENE 00:20:29 21° ENE 00:22:41 10° NE
Cosmos 1535 Rocket 4.4 00:14:05 10° NNW 00:20:22 68° W 00:20:38 67° WSW
Cosmos 1470 4.3 00:22:49 33° N 00:22:49 33° N 00:25:06 10° N
CZ-4C R/B 3.9 00:19:00 20° WNW 00:21:53 30° NNW 00:27:29 10° NNE
Cosmos 1371 Rocket 4.1 00:24:29 72° E 00:24:29 72° E 00:29:30 10° NNE
Cosmos 1339 Rocket 4.4 00:34:42 67° S 00:35:40 87° E 00:42:00 10° N
NPP 4.0 00:30:25 10° NNE 00:35:42 53° E 00:36:18 50° SE
Cosmos 2058 Rocket 3.5 00:37:09 59° ENE 00:37:09 59° ENE 00:41:14 10° NNE
Cosmos 2227 Rocket 3.1 00:38:06 35° SE 00:38:54 37° ESE 00:44:03 10° NE
Cosmos 1934 Rocket 4.2 00:33:15 10° NNW 00:39:05 50° W 00:39:05 50° W
Cosmos 1271 Rocket 4.0 00:36:49 10° N 00:40:00 38° NE 00:40:00 38° NE
COSMOS 2428 3.5 00:37:05 10° NW 00:41:13 38° WNW 00:41:13 38° WNW
Cosmos 407 Rocket 3.9 00:38:10 10° NNW 00:42:21 49° WNW 00:42:21 49° WNW
AQUA 4.3 00:39:23 10° NNE 00:44:01 49° E 00:44:16 49° ESE
Cosmos 2360 Rocket 4.4 00:42:50 10° WNW 00:43:35 12° WNW 00:43:35 12° WNW
SeaSat 1 2.6 00:43:52 10° NE 00:48:46 60° ESE 00:48:57 59° SE
Meteor 1-16 Rocket 4.3 00:48:40 61° SSE 00:49:39 75° E 00:55:33 10° NNE
Cosmos 1954 Rocket 3.9 00:44:23 10° NNW 00:49:45 85° ENE 00:50:23 70° SE
Cosmos 1140 Rocket 3.4 00:44:32 10° NNW 00:49:37 75° W 00:49:37 75° W
USA 267 3.1 00:47:35 40° SSE 00:49:57 65° SW 00:56:28 10° WNW
Cosmos 2219 Rocket 3.2 00:48:59 10° NW 00:52:37 32° WNW 00:52:37 32° WNW
MOZ.5/SAFIR/RUBIN 5/SL-8 3.8 00:55:22 69° WNW 00:55:22 69° WNW 00:59:49 10° NNW
Cosmos 2297 Rocket 2.6 00:54:03 45° SE 00:55:03 51° ESE 01:00:32 10° NE
SL-16 R/B 2.4 00:57:14 58° SSW 00:58:19 70° WSW 01:04:30 10° NNW
Cosmos 676 Rocket 3.9 00:54:30 10° NNW 00:59:51 75° WSW 01:00:08 73° SW
NOSS 3-4 (A) 3.9 00:53:16 10° NW 01:00:14 76° NE 01:07:52 10° SE
NOSS 3-4 (C) 3.9 00:53:23 10° NW 01:00:20 75° NE 01:07:58 10° SE
deb Chang Zheng 4 4.3 00:58:41 10° NNE 01:02:51 45° E 01:03:16 43° ESE
Cosmos 1242 Rocket 4.1 01:02:51 10° N 01:05:58 30° ENE 01:06:27 29° E
Cosmos 1703 3.7 01:02:44 10° N 01:05:57 59° N 01:05:57 59° N
IRS-P3 4.4 01:03:31 10° NNE 01:08:50 62° ESE 01:10:17 45° SSE
NOSS 3-3 (C) 4.1 01:08:00 46° WSW 01:09:47 67° NW 01:16:34 10° NE
NOSS 3-3 (A) 4.1 01:08:00 46° WSW 01:09:48 66° NW 01:16:35 10° NE
Resurs 1-4 Rocket 2.0 01:05:15 10° NNE 01:10:32 79° WNW 01:11:22 63° SW
CZ-4B R/B 4.4 01:06:42 10° N 01:10:51 30° WNW 01:11:01 30° WNW
CZ-4B R/B 3.3 01:10:38 22° E 01:11:30 26° ENE 01:14:18 10° N
Cosmos 1953 3.8 01:13:03 26° NW 01:13:03 26° NW 01:15:41 10° N
UNK 4.2 01:13:53 45° WNW 01:13:53 45° WNW 01:17:47 10° NNW
Cosmos 1461 4.0 01:13:22 32° ESE 01:13:22 32° ESE 01:16:54 10° NE
Cosmos 2061 Rocket 4.4 01:07:25 10° N 01:13:48 62° ENE 01:18:32 19° SSE
COSMOS 2455 4.0 01:09:42 10° NW 01:13:18 27° W 01:13:18 27° W
Landsat 5 3.5 01:15:30 62° E 01:15:46 65° ENE 01:19:35 10° N
Cosmos 2237 Rocket 2.2 01:11:20 10° NNW 01:16:55 59° WSW 01:17:34 55° SW
Cosmos 1727 Rocket 4.0 01:15:26 49° SW 01:17:06 67° WNW 01:23:27 10° N
Cosmos 1980 3.7 01:12:52 10° NW 01:18:23 54° WSW 01:18:41 53° WSW
Cosmos 2173 Rocket 3.9 01:16:34 10° N 01:22:52 88° WSW 01:25:56 33° S
H-2A R/B 3.2 01:24:37 30° WNW 01:24:37 30° WNW 01:27:20 10° NNW
SL-16 R/B 2.4 01:19:19 10° NNW 01:25:01 69° ENE 01:30:39 10° SE
Cosmos 1850 Rocket 4.1 01:21:14 10° NNW 01:26:30 76° ENE 01:30:17 19° SSE
Cosmos 2056 Rocket 4.1 01:25:48 39° W 01:26:54 44° WNW 01:32:05 10° NNE
Helios 1B 4.4 01:27:15 69° SSW 01:27:41 79° WSW 01:32:04 10° NNW
Meteor 1-11 4.1 01:24:21 10° NNW 01:29:57 68° W 01:31:36 45° SSW
ERBS 3.8 01:31:10 28° NW 01:31:29 29° NNW 01:34:29 10° NE
Cosmos 2333 Rocket 4.0 01:31:06 10° WNW 01:32:56 15° WNW 01:32:56 15° WNW
Cosmos 1741 Rocket 4.0 01:31:26 10° NNW 01:36:47 88° ENE 01:41:01 17° SSE
CZ-2C R/B 4.5 01:33:41 10° NNE 01:37:17 30° E 01:39:26 19° SE
Meteor 2-10 4.3 01:36:24 44° SW 01:38:10 66° WNW 01:43:54 10° N
Cosmos 2219 3.7 01:39:16 36° WSW 01:41:08 49° NW 01:46:45 10° NNE
Cosmos 1000 Rocket 4.4 01:38:56 36° SSW 01:41:40 79° W 01:47:55 10° N
Cosmos 2082 3.8 01:39:32 37° S 01:41:53 73° ESE 01:47:37 10° NNE
SL-08 R/B 3.5 01:43:08 45° SSW 01:44:18 57° W 01:49:13 10° NNW
ATLAS 2AS CENTAUR R/B 3.0 01:38:07 10° NW 01:45:24 48° WSW 01:50:36 17° S
Spot 4 Rocket 4.3 01:40:38 10° NNE 01:45:48 65° ESE 01:48:31 28° S
CZ-4C R/B 4.1 01:47:12 31° WNW 01:47:12 31° WNW 01:49:32 10° NNW
Cosmos 1812 Rocket 3.4 01:45:23 50° SSW 01:46:29 84° W 01:50:53 10° N
Cosmos 1908 3.5 01:46:36 47° WNW 01:46:36 47° WNW 01:50:19 10° N
CZ-2D R/B 2.8 01:41:31 10° N 01:46:38 42° WNW 01:48:14 34° WSW
Cosmos 2058 3.4 01:43:05 10° N 01:47:09 57° ENE 01:49:57 19° SSE
Cosmos 2016 Rocket 3.9 01:45:28 10° N 01:51:39 78° W 01:55:57 21° S
ARIANE 5 R/B 2.5 01:46:27 10° NNE 01:51:44 87° ESE 01:54:15 32° SSW
Cosmos 2100 Rocket 4.2 01:47:02 10° NNW 01:53:09 51° W 01:55:55 31° SSW
ADEOS II 2.1 01:49:03 10° NNE 01:54:21 85° ESE 01:57:05 29° SSW
Cosmos 1726 3.4 01:55:01 27° WNW 01:55:01 27° WNW 01:58:05 10° NNW
USA 215 4.1 01:51:21 10° NE 01:57:31 46° NNW 02:03:19 12° W
Cosmos 1802 Rocket 4.0 01:52:15 10° NNW 01:58:16 59° W 02:01:48 26° SSW
Cosmos 2263 Rocket 4.4 01:55:14 10° SE 01:59:08 19° E 02:03:03 10° NE
IRS-1D 3.9 01:55:52 10° N 02:00:49 48° WNW 02:02:47 32° WSW
Cosmos 2233 Rocket 4.3 01:56:00 10° N 02:02:10 67° E 02:08:14 10° SSE
Cosmos 1356 3.3 02:03:30 54° SSW 02:04:12 82° WNW 02:07:41 10° N
Cosmos 2123 Rocket 3.9 02:06:44 22° SSW 02:10:54 79° W 02:17:13 10° N
BREEZE-M DEB (TANK) 3.5 02:09:51 33° WSW 02:11:32 89° NNW 02:21:24 10° ENE
Cosmos 1300 2.6 02:11:00 37° SSW 02:12:24 75° W 02:16:14 10° N
Cosmos 1459 Rocket 4.5 02:07:05 10° NNW 02:12:44 39° W 02:15:26 26° SW
Cosmos-2242 3.3 02:10:50 19° S 02:13:46 67° E 02:18:03 10° NNE
Cosmos 1331 Rocket 4.3 02:14:37 19° S 02:18:25 69° ESE 02:23:43 10° NNE
Cosmos 1110 Rocket 4.1 02:17:24 21° SSW 02:20:59 79° ESE 02:26:18 10° NNE
H-2A R/B 4.3 02:17:21 10° NE 02:21:07 29° E 02:24:44 10° SSE
Cosmos 1076 Rocket 4.0 02:18:49 10° NNW 02:22:46 38° W 02:24:15 28° SW
Cosmos 2227 Rocket 2.9 02:19:56 23° WSW 02:22:55 41° NW 02:28:17 10° NNE
Cosmos 1452 Rocket 4.3 02:21:53 24° WSW 02:24:25 37° WNW 02:29:19 10° N
Meteor 1-28 Rocket 3.1 02:21:40 10° SSE 02:25:22 86° ENE 02:29:05 10° NNW
SeaSat 1 3.8 02:21:54 10° N 02:25:59 27° NW 02:28:44 16° W
Cosmos 1689 Rocket 2.3 02:26:57 37° SW 02:27:40 47° W 02:30:38 10° NNW
Cosmos 1725 Rocket 4.1 02:22:41 10° NNW 02:28:42 53° W 02:34:24 11° SSW
PSLV R/B 4.4 02:27:24 10° SSE 02:31:34 65° ENE 02:35:46 10° N
Cosmos 1408 Rocket 4.0 02:27:38 10° N 02:32:07 67° E 02:36:33 10° SSE
USA 267 4.5 02:34:49 18° WSW 02:34:49 18° WSW 02:38:10 10° W
IDEFIX/ARIANE 42P 3.6 02:30:17 10° NNE 02:35:19 46° E 02:40:20 10° S
Cosmos 2151 2.8 02:33:14 10° NNW 02:37:28 78° W 02:41:39 10° S
Cosmos 2297 Rocket 3.3 02:35:52 17° WSW 02:39:21 32° NW 02:44:25 10° NNE
Cosmos 1242 Rocket 4.1 02:38:16 10° NW 02:40:27 17° W 02:40:27 17° W
SL-16 R/B 4.3 02:42:20 11° W 02:43:03 12° W 02:45:05 10° WNW
CZ-4B R/B 2.8 02:43:57 19° W 02:43:57 19° W 02:46:23 10° NW
Spot 2 4.5 02:39:43 10° NNE 02:44:55 86° WNW 02:50:02 10° SSW
Cosmos 1408 3.3 02:45:46 10° N 02:49:17 55° ENE 02:52:48 10° SSE
Resurs 1-4 Rocket 4.1 02:46:54 10° NNW 02:49:31 14° NW 02:52:09 10° W
Cosmos 1461 3.9 02:49:47 16° W 02:52:23 33° NW 02:56:02 10° NNE
Cosmos 1892 2.7 02:49:24 10° NNW 02:53:11 60° W 02:56:59 10° S
Intercosmos 25 Rocket 3.9 02:52:28 19° WSW 02:54:03 28° WNW 02:56:53 10° NNW
Okean 3 Rocket 4.2 02:50:59 10° NNW 02:55:01 36° W 02:59:02 10° SSW
RESURS DK-1 2.9 02:51:47 10° NNW 02:55:56 65° ENE 03:00:02 10° SE
Cosmos 1943 3.4 02:50:17 10° NNW 02:56:02 78° ENE 03:01:44 10° SSE
OE (NEXTSAT) 4.3 02:54:30 15° W 02:57:14 68° S 03:00:43 10° ESE
Cosmos 1766 Rocket 3.9 02:53:26 10° NNW 02:57:44 46° W 03:02:01 10° SSW
Cosmos 1603 3.6 02:54:40 10° NNW 03:00:18 74° WSW 03:05:55 10° SSE
PSLV R/B 3.6 02:57:45 10° NNE 03:02:06 87° E 03:06:28 10° SSW
SL-16 R/B 3.4 03:04:28 10° NW 03:08:33 21° W 03:12:38 10° SSW
Cosmos 968 Rocket 4.3 03:03:39 10° NNW 03:08:45 56° ENE 03:13:50 10° SE
CZ-2C R/B 4.0 03:08:13 10° N 03:11:38 27° WNW 03:14:51 11° WSW
CZ-2C R/B 3.3 03:14:20 10° NNE 03:18:45 46° E 03:23:10 10° S
GENESIS II 4.4 03:23:31 10° NW 03:27:40 84° NE 03:31:44 10° SE
Cosmos 1238 Rocket 2.9 03:25:55 10° NNW 03:28:35 31° W 03:31:24 10° SSW
Cosmos 1842 Rocket 3.6 03:25:11 10° SSW 03:29:34 65° W 03:33:57 10° N
ARIANE 5 R/B 4.3 03:26:56 10° NNW 03:30:09 17° NW 03:33:21 10° W
PAYLOAD A 4.3 03:25:25 10° NNE 03:30:46 78° ESE 03:35:52 10° S
CRYOSAT 2 4.4 03:26:11 10° S 03:31:02 64° W 03:35:54 10° N
ADEOS II 3.8 03:30:07 10° NNW 03:33:23 17° WNW 03:36:38 10° W
Cosmos 2221 2.6 03:29:20 10° S 03:33:42 84° W 03:38:08 10° N
Cosmos 1302 Rocket 4.3 03:29:37 10° SW 03:34:43 53° WNW 03:39:50 10° NNE
CZ-3 R/B 4.4 03:26:08 10° SW 03:38:53 20° S 03:44:54 10° SE
